(498513) = 2008 DG76

Discovered at Kitt Peak on 2008-02-07 by Spacewatch.

Orbit

Orbit type: Main Belt

Note: WebGL enabled browser required.

epoch2023-02-25.0
epoch JD2460000.5
perihelion date2022-06-09.98012
perihelion JD2459740.48012
argument of perihelion (°)110.07029
ascending node (°)5.74581
inclination (°)1.20221
eccentricity0.1376988
perihelion distance (AU)2.0476617
Tisserand w.r.t. Jupiter3.5
ΔV w.r.t. Earth (km/sec)8.9
semimajor axis (AU)2.3746479
mean anomaly (°)70.03442
mean daily motion (°/day)0.26934260
aphelion distance (AU)2.702
period (years)3.66
P-vector [x]-0.43546337
P-vector [y]0.81788639
P-vector [z]0.37607646
Q-vector [x]-0.90020400
Q-vector [y]-0.39661583
Q-vector [z]-0.17980169
absolute magnitude18.44
phase slope0.15
uncertainty0
referenceMPO 745323
observations used112
oppositions9
arc length (days)7110
first opposition used2003
last opposition used2023
residual rms (arc-secs)0.74
perturbers coarse indicatorM-v
perturbers precise indicator003Ek
first observation date used2003-11-23.0
last observation date used2023-05-12.0
computer nameMPCLINUX
JD of orbit computation2458025.320371
perihelion JD uncertainty (days)6.1090E-05
argument of perihelion uncertainty (°)1.0906E-04
ascending node uncertainty (°)1.0780E-04
inclination uncertainty (°)4.3649E-06
eccentricity uncertainty 5.3455E-08
perihelion distance uncertainty (AU)1.3705E-07
Minimum Orbit Intersection Distances (in AU)
for orbit epoch: 2460000.5, reference: E2023-JC8
Mercury1.72447
Venus1.3292
Earth1.06397
Mars0.40708
Jupiter2.37914
Saturn6.94992
Uranus16.2456
Neptune27.3794

Observations

115 total observations over interval: 2003 11 23.41740 – 2023 05 12.417884
These data are available for download (format description).

